Weather History for KBKW - March, 2012

Change the Weather History Date:

Saturday, March 24, 2012

  Actual Average Record
Temperature  
Mean Temperature 59 °F 45 °F  
Max Temperature 65 °F 55 °F 80 °F (1910)
Min Temperature 53 °F 35 °F 6 °F (1940)
Degree Days  
Heating Degree Days 6 20  
Month to date heating degree days 279 577  
Since 1 July heating degree days 3672 4578  
Cooling Degree Days 0 0  
Month to date cooling degree days 13 0  
Year to date cooling degree days 13 0  
Growing Degree Days 6 (Base 50)    
Moisture  
Dew Point 51 °F    
Average Humidity 80    
Maximum Humidity 93    
Minimum Humidity 67    
Precipitation  
Precipitation 0.47 in 0.12 in 1.04 in (1917)
Month to date precipitation 3.17 2.74  
Year to date precipitation 10.37 8.31  
Snow  
Snow 0.00 in - - ()
Month to date snowfall  
Since 1 September snowfall  
Snow Depth -    
Sea Level Pressure  
Sea Level Pressure 29.85 in    
Wind  
Wind Speed 8 mph (SE)    
Max Wind Speed 16 mph    
Max Gust Speed 21 mph    
Visibility 8 miles    
Events Rain    
T = Trace of Precipitation, MM = Missing Value Source: NWS Daily Summary

Daily Weather History Graph

Daily Weather History Graph

Search for Another Location

Airport or City:

Trip Planner

Search our weather history database for the weather conditions in past years. The results will help you decide how hot, cold, wet, or windy it might be!

Date:

Astronomy

Mar. 24, 2012 Rise Set
Actual Time 7:21 AM EDT 7:40 PM EDT
Civil Twilight 6:54 AM EDT 8:06 PM EDT
Nautical Twilight 6:24 AM EDT 8:37 PM EDT
Astronomical Twilight 5:52 AM EDT 9:09 PM EDT
Moon 8:02 AM EDT (3/24) 9:55 PM EDT (3/24)
Length of Visible Light 13h 11m
Length of Day
12h 19m
Waxing Crescent, 4% of the Moon is Illuminated
Mar 24
Waxing Crescent
Mar 30
First Quarter
Apr 6
Full
Apr 13
Last Quarter
Apr 21
New

Hourly Weather History & Observations

Time (EDT) Temp. Dew Point Humidity Pressure Visibility Wind Dir Wind Speed Gust Speed Precip Events Conditions
12:51 AM 60.1 °F 55.0 °F 83% 29.86 in 10.0 mi SE 9.2 mph - 0.01 in   Overcast
1:51 AM 59.0 °F 55.0 °F 87% 29.85 in 10.0 mi SE 10.4 mph - 0.00 in Rain Light Rain
2:51 AM 59.0 °F 55.0 °F 87% 29.85 in 10.0 mi SE 9.2 mph - 0.02 in   Overcast
3:51 AM 57.9 °F 55.0 °F 90% 29.84 in 10.0 mi SE 5.8 mph - N/A   Overcast
4:51 AM 57.9 °F 55.0 °F 90% 29.84 in 10.0 mi SSE 6.9 mph - N/A   Mostly Cloudy
5:51 AM 57.0 °F 55.0 °F 93% 29.84 in 10.0 mi SE 8.1 mph - N/A   Partly Cloudy
6:36 AM 57.2 °F 53.6 °F 88% 29.92 in 2.5 mi NNW 16.1 mph 20.7 mph N/A   Overcast
6:41 AM 57.2 °F 51.8 °F 82% 29.93 in 5.0 mi NW 11.5 mph 20.7 mph N/A   Haze
6:51 AM 55.9 °F 50.0 °F 80% 29.88 in 10.0 mi NW 9.2 mph 17.3 mph N/A   Overcast
7:30 AM 53.6 °F 48.2 °F 82% 29.96 in 9.0 mi NW 4.6 mph - 0.05 in Rain Light Rain
7:51 AM 53.1 °F 50.0 °F 89% 29.91 in 10.0 mi Calm Calm - 0.06 in Rain Light Rain
8:51 AM 54.0 °F 50.0 °F 86% 29.89 in 10.0 mi East 3.5 mph - 0.00 in   Overcast
9:51 AM 53.1 °F 50.0 °F 89% 29.93 in 3.0 mi Calm Calm - 0.04 in Rain Light Rain
10:51 AM 54.0 °F 50.0 °F 86% 29.91 in 10.0 mi East 5.8 mph - 0.11 in Rain Light Rain
11:51 AM 55.0 °F 50.0 °F 83% 29.87 in 10.0 mi SE 6.9 mph - 0.01 in   Mostly Cloudy
12:51 PM 60.1 °F 53.1 °F 78% 29.84 in 10.0 mi South 10.4 mph - N/A   Clear
1:51 PM 63.0 °F 52.0 °F 67% 29.80 in 10.0 mi Variable 6.9 mph - N/A   Partly Cloudy
2:51 PM 60.1 °F 51.1 °F 72% 29.79 in 10.0 mi SE 8.1 mph - 0.00 in Rain Light Rain
3:20 PM 57.2 °F 53.6 °F 88% 29.86 in 1.8 mi SSE 6.9 mph - 0.12 in Rain Heavy Rain
3:29 PM 57.2 °F 51.8 °F 82% 29.84 in 3.0 mi ESE 13.8 mph - 0.16 in Rain Rain
3:51 PM 55.9 °F 51.1 °F 84% 29.79 in 5.0 mi East 10.4 mph - 0.20 in Rain Rain
4:51 PM 57.0 °F 48.9 °F 74% 29.77 in 10.0 mi Calm Calm - 0.03 in   Clear
5:51 PM 57.9 °F 48.9 °F 72% 29.78 in 10.0 mi ESE 4.6 mph - N/A   Partly Cloudy
6:51 PM 55.0 °F 48.9 °F 80% 29.80 in 4.0 mi ESE 8.1 mph - 0.02 in Rain Rain
7:51 PM 53.1 °F 50.0 °F 89% 29.81 in 10.0 mi NNW 3.5 mph - 0.07 in   Mostly Cloudy
8:42 PM 53.6 °F 51.8 °F 94% 29.86 in 10.0 mi WSW 6.9 mph - N/A   Overcast
8:51 PM 53.1 °F 51.1 °F 93% 29.84 in 6.0 mi West 3.5 mph - 0.00 in Rain Light Rain
9:00 PM 51.8 °F 44.6 °F 76% 29.86 in 2.0 mi West 4.6 mph - 0.08 in Rain Heavy Rain
9:21 PM 50.0 °F 46.4 °F 87% 29.86 in 4.0 mi ENE 4.6 mph - 0.23 in Rain Rain
9:51 PM 50.0 °F 46.0 °F 86% 29.84 in 10.0 mi East 3.5 mph - 0.24 in   Overcast
10:51 PM 50.0 °F 46.0 °F 86% 29.84 in 10.0 mi Calm Calm - N/A   Overcast
11:51 PM 50.0 °F 48.0 °F 93% 29.83 in 10.0 mi Calm Calm - 0.01 in Rain Light Rain